Time,TemperatureF,DewpointF,PressureIn,WindDirection,WindDirectionDegrees,WindSpeedMPH,WindSpeedGustMPH,Humidity,HourlyPrecipIn,Conditions,Clouds,dailyrainin,SoftwareType,DateUTC
2013-08-28 00:02:00,49.4,46.3,29.91,SE,126,4.0,5.0,89,0.00,,BKN001,0.00,VWS V14.00,2013-08-28 06:02:00,
2013-08-28 00:07:00,49.2,46.4,29.91,SSW,203,1.0,5.0,90,0.00,,BKN001,0.00,VWS V14.00,2013-08-28 06:07:00,
2013-08-28 00:12:00,49.2,46.7,29.91,SSW,203,1.0,5.0,91,0.00,,BKN001,0.00,VWS V14.00,2013-08-28 06:12:00,
2013-08-28 00:17:00,49.2,46.7,29.92,SSW,203,3.0,5.0,91,0.00,,BKN001,0.00,VWS V14.00,2013-08-28 06:17:00,
2013-08-28 00:22:00,49.1,46.6,29.92,SSW,203,1.0,6.0,91,0.00,,BKN001,0.00,VWS V14.00,2013-08-28 06:22:00,
2013-08-28 00:27:00,48.6,46.1,29.92,SSE,153,0.0,6.0,91,0.00,,BKN001,0.00,VWS V14.00,2013-08-28 06:27:00,
2013-08-28 00:32:00,48.5,46.3,29.92,SE,128,7.0,7.0,92,0.00,,BKN001,0.00,VWS V14.00,2013-08-28 06:32:00,
2013-08-28 00:37:00,48.5,46.3,29.92,SE,127,5.0,7.0,92,0.00,,BKN001,0.00,VWS V14.00,2013-08-28 06:37:00,
2013-08-28 00:42:00,48.8,46.6,29.92,SE,144,4.0,7.0,92,0.00,,BKN001,0.00,VWS V14.00,2013-08-28 06:42:00,
2013-08-28 00:47:00,48.9,46.7,29.92,SSW,195,5.0,7.0,92,0.00,,BKN001,0.00,VWS V14.00,2013-08-28 06:47:00,
2013-08-28 00:52:00,48.8,46.6,29.92,SSW,210,8.0,8.0,92,0.00,,BKN001,0.00,VWS V14.00,2013-08-28 06:52:00,
2013-08-28 00:57:00,49.0,46.8,29.92,SW,227,7.0,10.0,92,0.00,,BKN001,0.00,VWS V14.00,2013-08-28 06:57:00,
2013-08-28 01:02:00,49.3,47.1,29.92,SSW,193,7.0,11.0,92,0.00,,BKN001,0.00,VWS V14.00,2013-08-28 07:02:00,
2013-08-28 01:07:00,49.6,47.4,29.92,WSW,243,7.0,11.0,92,0.00,,BKN001,0.00,VWS V14.00,2013-08-28 07:07:00,
2013-08-28 01:12:00,49.7,47.5,29.92,SW,217,9.0,12.0,92,0.00,,BKN001,0.00,VWS V14.00,2013-08-28 07:12:00,
2013-08-28 01:17:00,49.9,47.7,29.92,SW,218,12.0,12.0,92,0.00,,BKN001,0.00,VWS V14.00,2013-08-28 07:17:00,
2013-08-28 01:22:00,50.4,47.9,29.92,SSW,204,9.0,14.0,91,0.00,,BKN001,0.00,VWS V14.00,2013-08-28 07:22:00,
2013-08-28 01:27:00,50.5,47.7,29.92,South,179,12.0,14.0,90,0.00,,BKN001,0.00,VWS V14.00,2013-08-28 07:27:00,
2013-08-28 01:32:00,50.7,47.9,29.91,South,184,9.0,12.0,90,0.00,,BKN001,0.00,VWS V14.00,2013-08-28 07:32:00,
2013-08-28 01:37:00,50.7,47.6,29.91,South,187,7.0,12.0,89,0.00,,BKN001,0.00,VWS V14.00,2013-08-28 07:37:00,
2013-08-28 01:42:00,50.7,47.6,29.91,SSE,148,6.0,12.0,89,0.00,,BKN001,0.00,VWS V14.00,2013-08-28 07:42:00,
2013-08-28 01:47:00,50.5,47.4,29.91,SE,142,6.0,12.0,89,0.00,,BKN001,0.00,VWS V14.00,2013-08-28 07:47:00,
2013-08-28 01:52:00,50.3,47.2,29.91,SSE,149,7.0,12.0,89,0.00,,BKN001,0.00,VWS V14.00,2013-08-28 07:52:00,
2013-08-28 01:57:00,49.9,47.1,29.90,SSE,159,6.0,12.0,90,0.00,,BKN001,0.00,VWS V14.00,2013-08-28 07:57:00,
2013-08-28 02:02:00,49.5,47.0,29.90,SSE,149,5.0,8.0,91,0.00,,BKN001,0.00,VWS V14.00,2013-08-28 08:02:00,
2013-08-28 02:07:00,49.3,46.8,29.91,SE,142,7.0,10.0,91,0.00,,BKN001,0.00,VWS V14.00,2013-08-28 08:07:00,
2013-08-28 02:12:00,49.1,46.6,29.91,SE,136,4.0,10.0,91,0.00,,BKN001,0.00,VWS V14.00,2013-08-28 08:12:00,
2013-08-28 02:17:00,48.8,46.6,29.91,SE,132,9.0,11.0,92,0.00,,BKN001,0.00,VWS V14.00,2013-08-28 08:17:00,
2013-08-28 02:22:00,49.2,47.0,29.91,SE,137,8.0,11.0,92,0.00,,BKN001,0.00,VWS V14.00,2013-08-28 08:22:00,
2013-08-28 02:27:00,49.7,47.5,29.91,SSE,148,6.0,11.0,92,0.00,,BKN001,0.00,VWS V14.00,2013-08-28 08:27:00,
2013-08-28 02:32:00,49.6,47.1,29.91,ESE,115,7.0,11.0,91,0.00,,BKN001,0.00,VWS V14.00,2013-08-28 08:32:00,
2013-08-28 02:37:00,50.0,47.2,29.91,SE,142,4.0,11.0,90,0.00,,BKN001,0.00,VWS V14.00,2013-08-28 08:37:00,
2013-08-28 02:42:00,50.1,47.3,29.91,SSW,192,0.0,11.0,90,0.00,,BKN001,0.00,VWS V14.00,2013-08-28 08:42:00,
2013-08-28 02:47:00,49.8,46.7,29.92,SSE,159,3.0,11.0,89,0.00,,BKN001,0.00,VWS V14.00,2013-08-28 08:47:00,
2013-08-28 02:52:00,49.3,46.5,29.92,SSE,160,1.0,11.0,90,0.00,,BKN001,0.00,VWS V14.00,2013-08-28 08:52:00,
2013-08-28 02:57:00,49.2,46.4,29.92,SSE,159,0.0,11.0,90,0.00,,BKN001,0.00,VWS V14.00,2013-08-28 08:57:00,
2013-08-28 03:02:00,49.0,46.2,29.92,SSE,159,0.0,1.0,90,0.00,,BKN001,0.00,VWS V14.00,2013-08-28 09:02:00,
2013-08-28 03:07:00,48.9,46.4,29.92,SSE,160,0.0,1.0,91,0.00,,BKN001,0.00,VWS V14.00,2013-08-28 09:07:00,
2013-08-28 03:12:00,48.7,46.2,29.92,SSE,160,0.0,2.0,91,0.00,,BKN001,0.00,VWS V14.00,2013-08-28 09:12:00,
2013-08-28 03:17:00,48.5,46.0,29.92,SSE,159,0.0,2.0,91,0.00,,BKN001,0.00,VWS V14.00,2013-08-28 09:17:00,
2013-08-28 03:22:00,48.2,45.7,29.92,SSE,159,0.0,2.0,91,0.00,,BKN001,0.00,VWS V14.00,2013-08-28 09:22:00,
2013-08-28 03:27:00,48.1,45.6,29.92,SSE,159,0.0,2.0,91,0.00,,BKN001,0.00,VWS V14.00,2013-08-28 09:27:00,
2013-08-28 03:32:00,48.1,45.9,29.92,SSE,160,0.0,0.0,92,0.00,,BKN001,0.00,VWS V14.00,2013-08-28 09:32:00,
2013-08-28 03:34:00,48.0,45.8,29.92,SSE,160,0.0,0.0,92,0.00,,BKN001,0.00,VWS V14.00,2013-08-28 09:34:00,
2013-08-28 03:39:00,47.9,45.7,29.92,SSE,160,0.0,0.0,92,0.00,,BKN001,0.00,VWS V14.00,2013-08-28 09:39:00,
2013-08-28 03:44:00,47.9,45.7,29.92,SSE,160,0.0,0.0,92,0.00,,BKN001,0.00,VWS V14.00,2013-08-28 09:44:00,
2013-08-28 03:49:00,48.2,46.0,29.92,SSE,160,0.0,1.0,92,0.00,,BKN001,0.00,VWS V14.00,2013-08-28 09:49:00,
2013-08-28 03:53:00,48.1,45.9,29.91,SSE,160,3.0,3.0,92,0.00,,BKN001,0.00,VWS V14.00,2013-08-28 09:53:00,
2013-08-28 03:58:00,47.8,45.6,29.92,SSE,159,0.0,4.0,92,0.00,,BKN001,0.00,VWS V14.00,2013-08-28 09:58:00,
2013-08-28 04:03:00,47.5,45.3,29.92,SSE,160,0.0,1.0,92,0.00,,BKN001,0.00,VWS V14.00,2013-08-28 10:03:00,
2013-08-28 04:08:00,47.1,44.9,29.92,SSE,160,0.0,3.0,92,0.00,,BKN001,0.00,VWS V14.00,2013-08-28 10:08:00,
2013-08-28 04:13:00,47.0,44.8,29.92,SSE,160,0.0,3.0,92,0.00,,BKN001,0.00,VWS V14.00,2013-08-28 10:13:00,
2013-08-28 04:18:00,46.8,44.9,29.92,SSE,159,0.0,3.0,93,0.00,,BKN001,0.00,VWS V14.00,2013-08-28 10:18:00,
2013-08-28 04:23:00,46.6,44.7,29.92,SSE,160,0.0,3.0,93,0.00,,BKN001,0.00,VWS V14.00,2013-08-28 10:23:00,
2013-08-28 04:28:00,46.6,44.7,29.92,SSE,160,0.0,3.0,93,0.00,,BKN001,0.00,VWS V14.00,2013-08-28 10:28:00,
2013-08-28 04:33:00,46.5,44.6,29.92,SSE,159,0.0,1.0,93,0.00,,BKN001,0.00,VWS V14.00,2013-08-28 10:33:00,
2013-08-28 04:38:00,47.0,45.1,29.92,SSE,160,0.0,3.0,93,0.00,,BKN001,0.00,VWS V14.00,2013-08-28 10:38:00,
2013-08-28 04:43:00,46.8,44.9,29.92,SSE,159,0.0,3.0,93,0.00,,BKN001,0.00,VWS V14.00,2013-08-28 10:43:00,
2013-08-28 04:48:00,46.5,44.6,29.92,SSE,160,0.0,3.0,93,0.00,,BKN001,0.00,VWS V14.00,2013-08-28 10:48:00,
2013-08-28 04:53:00,46.4,44.5,29.92,SSE,160,0.0,3.0,93,0.00,,BKN001,0.00,VWS V14.00,2013-08-28 10:53:00,
2013-08-28 04:58:00,46.5,44.6,29.92,SSE,159,0.0,3.0,93,0.00,,BKN001,0.00,VWS V14.00,2013-08-28 10:58:00,
2013-08-28 05:03:00,46.3,44.4,29.92,SSE,159,0.0,0.0,93,0.00,,BKN001,0.00,VWS V14.00,2013-08-28 11:03:00,
2013-08-28 05:08:00,46.1,44.2,29.92,SSE,159,0.0,0.0,93,0.00,,BKN001,0.00,VWS V14.00,2013-08-28 11:08:00,
2013-08-28 05:13:00,45.9,44.0,29.92,SSE,160,0.0,1.0,93,0.00,,BKN001,0.00,VWS V14.00,2013-08-28 11:13:00,
2013-08-28 05:18:00,45.6,43.7,29.92,SSE,160,0.0,1.0,93,0.00,,BKN001,0.00,VWS V14.00,2013-08-28 11:18:00,
2013-08-28 05:23:00,45.4,43.5,29.92,SSE,159,0.0,1.0,93,0.00,,BKN001,0.00,VWS V14.00,2013-08-28 11:23:00,
2013-08-28 05:28:00,45.0,43.1,29.92,SSE,160,0.0,1.0,93,0.00,,BKN001,0.00,VWS V14.00,2013-08-28 11:28:00,
2013-08-28 05:33:00,45.0,43.4,29.92,SSE,159,2.0,4.0,94,0.00,,BKN001,0.00,VWS V14.00,2013-08-28 11:33:00,
2013-08-28 05:38:00,44.7,43.1,29.92,SSE,159,0.0,4.0,94,0.00,,BKN001,0.00,VWS V14.00,2013-08-28 11:38:00,
2013-08-28 05:43:00,45.0,43.4,29.92,SSE,159,0.0,4.0,94,0.00,,BKN001,0.00,VWS V14.00,2013-08-28 11:43:00,
2013-08-28 05:48:00,44.7,43.1,29.93,SSE,159,0.0,4.0,94,0.00,,BKN001,0.00,VWS V14.00,2013-08-28 11:48:00,
2013-08-28 05:53:00,44.7,43.1,29.93,SSE,160,0.0,4.0,94,0.00,,BKN001,0.00,VWS V14.00,2013-08-28 11:53:00,
2013-08-28 05:58:00,44.4,42.8,29.93,SSE,160,0.0,4.0,94,0.00,,BKN001,0.00,VWS V14.00,2013-08-28 11:58:00,
2013-08-28 06:03:00,44.0,42.4,29.93,SSE,159,3.0,4.0,94,0.00,,BKN001,0.00,VWS V14.00,2013-08-28 12:03:00,
2013-08-28 06:08:00,43.8,42.2,29.93,SSE,159,3.0,4.0,94,0.00,,BKN001,0.00,VWS V14.00,2013-08-28 12:08:00,
2013-08-28 06:13:00,43.6,42.0,29.93,SSE,161,3.0,4.0,94,0.00,,BKN001,0.00,VWS V14.00,2013-08-28 12:13:00,
2013-08-28 06:18:00,43.5,41.9,29.93,South,184,0.0,5.0,94,0.00,,BKN001,0.00,VWS V14.00,2013-08-28 12:18:00,
2013-08-28 06:23:00,43.4,41.8,29.94,SSE,167,0.0,5.0,94,0.00,,BKN001,0.00,VWS V14.00,2013-08-28 12:23:00,
2013-08-28 06:28:00,43.6,42.0,29.94,SSE,159,3.0,5.0,94,0.00,,BKN001,0.00,VWS V14.00,2013-08-28 12:28:00,
2013-08-28 06:33:00,43.6,42.3,29.94,SE,145,1.0,4.0,95,0.00,,BKN001,0.00,VWS V14.00,2013-08-28 12:33:00,
2013-08-28 06:38:00,43.9,42.6,29.94,SE,146,4.0,5.0,95,0.01,,BKN001,0.01,VWS V14.00,2013-08-28 12:38:00,
2013-08-28 06:43:00,43.4,41.8,29.94,SSE,147,3.0,5.0,94,0.01,,BKN001,0.01,VWS V14.00,2013-08-28 12:43:00,
2013-08-28 06:48:00,43.0,41.4,29.94,SSE,147,2.0,5.0,94,0.01,,BKN001,0.01,VWS V14.00,2013-08-28 12:48:00,
2013-08-28 06:53:00,42.8,41.2,29.94,SSE,147,4.0,5.0,94,0.01,,BKN001,0.01,VWS V14.00,2013-08-28 12:53:00,
2013-08-28 06:58:00,42.7,41.4,29.94,SSW,210,5.0,6.0,95,0.01,,BKN001,0.01,VWS V14.00,2013-08-28 12:58:00,
2013-08-28 07:03:00,42.9,41.6,29.94,South,188,7.0,9.0,95,0.01,,BKN001,0.01,VWS V14.00,2013-08-28 13:03:00,
2013-08-28 07:08:00,43.2,41.9,29.95,SSE,162,6.0,9.0,95,0.01,,BKN001,0.01,VWS V14.00,2013-08-28 13:08:00,
2013-08-28 07:13:00,43.6,42.3,29.94,SE,141,5.0,9.0,95,0.01,,BKN001,0.01,VWS V14.00,2013-08-28 13:13:00,
2013-08-28 07:18:00,44.0,42.7,29.95,SSE,155,1.0,9.0,95,0.01,,BKN001,0.01,VWS V14.00,2013-08-28 13:18:00,
2013-08-28 07:23:00,44.0,42.7,29.95,SSE,155,0.0,9.0,95,0.01,,BKN001,0.01,VWS V14.00,2013-08-28 13:23:00,
2013-08-28 07:28:00,43.9,42.6,29.95,SE,124,0.0,9.0,95,0.01,,BKN001,0.01,VWS V14.00,2013-08-28 13:28:00,
2013-08-28 07:33:00,43.9,42.6,29.95,SE,124,0.0,0.0,95,0.01,,BKN001,0.01,VWS V14.00,2013-08-28 13:33:00,
2013-08-28 07:38:00,43.7,42.4,29.95,ENE,75,4.0,6.0,95,0.01,,BKN001,0.01,VWS V14.00,2013-08-28 13:38:00,
2013-08-28 07:43:00,43.6,42.3,29.95,ENE,69,3.0,6.0,95,0.01,,BKN001,0.01,VWS V14.00,2013-08-28 13:43:00,
2013-08-28 07:48:00,43.8,42.5,29.95,ENE,69,0.0,6.0,95,0.01,,BKN001,0.01,VWS V14.00,2013-08-28 13:48:00,
2013-08-28 07:53:00,44.5,43.2,29.95,ENE,66,0.0,6.0,95,0.01,,BKN001,0.01,VWS V14.00,2013-08-28 13:53:00,
2013-08-28 07:58:00,45.2,43.9,29.95,ENE,66,0.0,6.0,95,0.01,,BKN001,0.01,VWS V14.00,2013-08-28 13:58:00,
2013-08-28 08:03:00,46.2,44.8,29.96,ENE,66,0.0,4.0,95,0.00,,BKN001,0.01,VWS V14.00,2013-08-28 14:03:00,
2013-08-28 08:08:00,47.2,45.8,29.96,ENE,66,0.0,4.0,95,0.00,,BKN001,0.01,VWS V14.00,2013-08-28 14:08:00,
2013-08-28 08:13:00,48.1,46.7,29.96,ENE,66,0.0,4.0,95,0.00,,BKN001,0.01,VWS V14.00,2013-08-28 14:13:00,
2013-08-28 08:18:00,48.7,47.0,29.96,ENE,63,0.0,4.0,94,0.00,,BKN001,0.01,VWS V14.00,2013-08-28 14:18:00,
2013-08-28 08:23:00,49.9,48.2,29.96,ENE,60,0.0,4.0,94,0.00,,BKN001,0.01,VWS V14.00,2013-08-28 14:23:00,
2013-08-28 08:28:00,50.4,48.2,29.96,ENE,61,0.0,4.0,92,0.00,,BKN001,0.01,VWS V14.00,2013-08-28 14:28:00,
2013-08-28 08:33:00,51.3,48.8,29.96,ENE,57,0.0,4.0,91,0.00,,BKN001,0.01,VWS V14.00,2013-08-28 14:33:00,
2013-08-28 08:38:00,52.2,49.1,29.95,NE,45,2.0,5.0,89,0.00,,BKN001,0.01,VWS V14.00,2013-08-28 14:38:00,
2013-08-28 08:43:00,53.1,48.7,29.95,NE,46,0.0,5.0,85,0.00,,BKN001,0.01,VWS V14.00,2013-08-28 14:43:00,
2013-08-28 08:48:00,53.9,48.9,29.95,NE,46,0.0,5.0,83,0.00,,BKN001,0.01,VWS V14.00,2013-08-28 14:48:00,
2013-08-28 08:53:00,54.5,48.5,29.95,NE,45,0.0,5.0,80,0.00,,BKN001,0.01,VWS V14.00,2013-08-28 14:53:00,
2013-08-28 08:58:00,55.3,48.6,29.95,NE,45,0.0,5.0,78,0.00,,BKN001,0.01,VWS V14.00,2013-08-28 14:58:00,
2013-08-28 09:03:00,56.2,48.4,29.94,NE,46,0.0,2.0,75,0.00,,BKN001,0.01,VWS V14.00,2013-08-28 15:03:00,
2013-08-28 09:08:00,56.9,48.3,29.94,NE,46,0.0,2.0,73,0.00,,BKN001,0.01,VWS V14.00,2013-08-28 15:08:00,
2013-08-28 09:13:00,57.6,47.9,29.94,NE,46,0.0,2.0,70,0.00,,BKN001,0.01,VWS V14.00,2013-08-28 15:13:00,
2013-08-28 09:18:00,58.2,48.1,29.94,NE,45,0.0,2.0,69,0.00,,BKN001,0.01,VWS V14.00,2013-08-28 15:18:00,
2013-08-28 09:23:00,58.4,48.7,29.93,NE,46,0.0,2.0,70,0.00,,BKN001,0.01,VWS V14.00,2013-08-28 15:23:00,
2013-08-28 09:28:00,58.2,48.1,29.93,NE,46,0.0,2.0,69,0.00,,BKN001,0.01,VWS V14.00,2013-08-28 15:28:00,
2013-08-28 09:33:00,56.0,47.1,29.93,NE,46,0.0,3.0,72,0.00,,BKN001,0.01,VWS V14.00,2013-08-28 15:33:00,
2013-08-28 09:38:00,55.0,47.2,29.93,NE,46,0.0,3.0,75,0.00,,BKN001,0.01,VWS V14.00,2013-08-28 15:38:00,
2013-08-28 09:43:00,57.0,48.4,29.93,NE,46,0.0,3.0,73,0.00,,BKN001,0.01,VWS V14.00,2013-08-28 15:43:00,
2013-08-28 09:48:00,59.0,49.6,29.93,NE,45,0.0,3.0,71,0.00,,BKN001,0.01,VWS V14.00,2013-08-28 15:48:00,
2013-08-28 09:53:00,60.5,48.7,29.92,NE,46,0.0,3.0,65,0.00,,BKN001,0.01,VWS V14.00,2013-08-28 15:53:00,
2013-08-28 09:58:00,60.7,48.9,29.92,NE,45,0.0,3.0,65,0.00,,BKN001,0.01,VWS V14.00,2013-08-28 15:58:00,
2013-08-28 10:03:00,61.9,48.8,29.92,NE,46,0.0,1.0,62,0.00,,BKN001,0.01,VWS V14.00,2013-08-28 16:03:00,
2013-08-28 10:08:00,61.1,48.8,29.92,NE,46,0.0,1.0,64,0.00,,BKN001,0.01,VWS V14.00,2013-08-28 16:08:00,
2013-08-28 10:13:00,60.2,49.2,29.91,NE,46,0.0,1.0,67,0.00,,BKN001,0.01,VWS V14.00,2013-08-28 16:13:00,
2013-08-28 10:18:00,60.7,49.3,29.91,NE,46,0.0,1.0,66,0.00,,BKN001,0.01,VWS V14.00,2013-08-28 16:18:00,
2013-08-28 10:23:00,62.4,49.2,29.91,ENE,60,4.0,4.0,62,0.00,,BKN001,0.01,VWS V14.00,2013-08-28 16:23:00,
2013-08-28 10:28:00,63.8,48.3,29.91,ENE,60,0.0,4.0,57,0.00,,BKN001,0.01,VWS V14.00,2013-08-28 16:28:00,
2013-08-28 10:33:00,65.2,49.6,29.91,ENE,60,0.0,1.0,57,0.00,,BKN001,0.01,VWS V14.00,2013-08-28 16:33:00,
2013-08-28 10:38:00,65.8,50.2,29.90,ENE,60,0.0,2.0,57,0.00,,BKN001,0.01,VWS V14.00,2013-08-28 16:38:00,
2013-08-28 10:43:00,66.9,49.7,29.90,ENE,60,0.0,2.0,54,0.00,,BKN001,0.01,VWS V14.00,2013-08-28 16:43:00,
2013-08-28 10:48:00,68.7,49.9,29.90,ENE,60,0.0,2.0,51,0.00,,BKN001,0.01,VWS V14.00,2013-08-28 16:48:00,
2013-08-28 10:53:00,69.9,49.9,29.89,ENE,60,0.0,2.0,49,0.00,,BKN001,0.01,VWS V14.00,2013-08-28 16:53:00,
2013-08-28 10:58:00,70.1,49.5,29.89,ENE,60,0.0,2.0,48,0.00,,BKN001,0.01,VWS V14.00,2013-08-28 16:58:00,
2013-08-28 11:03:00,68.6,49.2,29.89,ENE,60,0.0,1.0,50,0.00,,BKN001,0.01,VWS V14.00,2013-08-28 17:03:00,
2013-08-28 11:08:00,68.9,50.0,29.89,ENE,60,1.0,2.0,51,0.00,,BKN001,0.01,VWS V14.00,2013-08-28 17:08:00,
2013-08-28 11:13:00,69.8,49.2,29.88,ENE,60,0.0,3.0,48,0.00,,BKN001,0.01,VWS V14.00,2013-08-28 17:13:00,
2013-08-28 11:18:00,70.6,50.0,29.88,ENE,60,0.0,3.0,48,0.00,,BKN001,0.01,VWS V14.00,2013-08-28 17:18:00,
2013-08-28 11:23:00,68.4,49.1,29.88,ENE,60,0.0,3.0,50,0.00,,BKN001,0.01,VWS V14.00,2013-08-28 17:23:00,
2013-08-28 11:28:00,67.9,49.1,29.88,ENE,60,0.0,3.0,51,0.00,,BKN001,0.01,VWS V14.00,2013-08-28 17:28:00,
2013-08-28 11:33:00,68.0,48.7,29.88,ENE,60,0.0,2.0,50,0.00,,BKN001,0.01,VWS V14.00,2013-08-28 17:33:00,
2013-08-28 11:38:00,67.2,49.0,29.87,SSE,163,0.0,4.0,52,0.00,,BKN001,0.01,VWS V14.00,2013-08-28 17:38:00,
2013-08-28 11:43:00,67.0,51.3,29.87,SSE,163,0.0,4.0,57,0.00,,BKN001,0.01,VWS V14.00,2013-08-28 17:43:00,
2013-08-28 11:48:00,67.1,49.4,29.86,WSW,246,0.0,5.0,53,0.00,,BKN001,0.01,VWS V14.00,2013-08-28 17:48:00,
2013-08-28 11:53:00,68.3,51.5,29.86,WSW,246,0.0,5.0,55,0.00,,BKN001,0.01,VWS V14.00,2013-08-28 17:53:00,
2013-08-28 11:58:00,70.0,49.4,29.86,SSE,155,1.0,5.0,48,0.00,,BKN001,0.01,VWS V14.00,2013-08-28 17:58:00,
2013-08-28 12:03:00,69.7,50.8,29.86,West,259,2.0,3.0,51,0.00,,BKN001,0.01,VWS V14.00,2013-08-28 18:03:00,
2013-08-28 12:08:00,69.4,50.5,29.86,SSW,205,0.0,4.0,51,0.00,,BKN001,0.01,VWS V14.00,2013-08-28 18:08:00,
2013-08-28 12:13:00,69.9,49.9,29.85,NNE,29,0.0,4.0,49,0.00,,BKN001,0.01,VWS V14.00,2013-08-28 18:13:00,
2013-08-28 12:18:00,72.1,53.5,29.85,NNE,28,0.0,4.0,52,0.00,,BKN001,0.01,VWS V14.00,2013-08-28 18:18:00,
2013-08-28 12:23:00,74.7,52.0,29.85,NNE,32,4.0,6.0,45,0.00,,BKN001,0.01,VWS V14.00,2013-08-28 18:23:00,
2013-08-28 12:28:00,75.7,52.3,29.85,NE,35,1.0,7.0,44,0.00,,BKN001,0.01,VWS V14.00,2013-08-28 18:28:00,
2013-08-28 12:33:00,76.4,51.0,29.84,NE,35,1.0,4.0,41,0.00,,BKN001,0.01,VWS V14.00,2013-08-28 18:33:00,
2013-08-28 12:38:00,76.8,50.7,29.84,NNE,31,0.0,4.0,40,0.00,,BKN001,0.01,VWS V14.00,2013-08-28 18:38:00,
2013-08-28 12:43:00,77.7,50.1,29.83,NNE,31,0.0,4.0,38,0.00,,BKN001,0.01,VWS V14.00,2013-08-28 18:43:00,
2013-08-28 12:48:00,78.9,49.0,29.83,NNE,32,0.0,4.0,35,0.00,,BKN001,0.01,VWS V14.00,2013-08-28 18:48:00,
2013-08-28 12:53:00,79.5,49.5,29.83,NE,35,2.0,4.0,35,0.00,,BKN001,0.01,VWS V14.00,2013-08-28 18:53:00,
2013-08-28 12:58:00,80.7,49.0,29.82,NE,35,0.0,4.0,33,0.00,,BKN001,0.01,VWS V14.00,2013-08-28 18:58:00,
2013-08-28 13:03:00,81.5,46.2,29.82,NE,35,0.0,1.0,29,0.00,,BKN001,0.01,VWS V14.00,2013-08-28 19:03:00,
2013-08-28 13:08:00,82.0,46.6,29.82,NE,34,0.0,5.0,29,0.00,,BKN001,0.01,VWS V14.00,2013-08-28 19:08:00,
2013-08-28 13:13:00,81.5,48.0,29.82,NNW,342,2.0,5.0,31,0.00,,BKN001,0.01,VWS V14.00,2013-08-28 19:13:00,
2013-08-28 13:18:00,79.6,48.0,29.81,NW,316,2.0,5.0,33,0.00,,BKN001,0.01,VWS V14.00,2013-08-28 19:18:00,
2013-08-28 13:23:00,76.0,46.4,29.81,SW,236,2.0,5.0,35,0.00,,BKN001,0.01,VWS V14.00,2013-08-28 19:23:00,
2013-08-28 13:28:00,74.0,44.6,29.81,SW,221,1.0,5.0,35,0.00,,BKN001,0.01,VWS V14.00,2013-08-28 19:28:00,
2013-08-28 13:33:00,73.9,46.7,29.81,SW,233,1.0,4.0,38,0.00,,BKN001,0.01,VWS V14.00,2013-08-28 19:33:00,
2013-08-28 13:38:00,74.2,47.7,29.80,WSW,240,2.0,4.0,39,0.00,,BKN001,0.01,VWS V14.00,2013-08-28 19:38:00,
2013-08-28 13:43:00,74.6,48.7,29.80,SSW,207,5.0,5.0,40,0.00,,BKN001,0.01,VWS V14.00,2013-08-28 19:43:00,
2013-08-28 13:48:00,74.3,45.7,29.80,South,183,0.0,7.0,36,0.00,,BKN001,0.01,VWS V14.00,2013-08-28 19:48:00,
2013-08-28 13:53:00,75.1,44.1,29.80,ESE,123,1.0,7.0,33,0.00,,BKN001,0.01,VWS V14.00,2013-08-28 19:53:00,
2013-08-28 13:58:00,76.4,44.4,29.80,WNW,302,0.0,7.0,32,0.00,,BKN001,0.01,VWS V14.00,2013-08-28 19:58:00,
2013-08-28 14:03:00,76.4,44.4,29.80,WSW,237,4.0,6.0,32,0.00,,BKN001,0.01,VWS V14.00,2013-08-28 20:03:00,
2013-08-28 14:08:00,75.6,45.3,29.79,SW,234,5.0,6.0,34,0.00,,BKN001,0.01,VWS V14.00,2013-08-28 20:08:00,
2013-08-28 14:13:00,75.7,44.6,29.79,SSW,209,0.0,8.0,33,0.00,,BKN001,0.01,VWS V14.00,2013-08-28 20:13:00,
2013-08-28 14:18:00,75.7,43.0,29.79,SW,225,2.0,10.0,31,0.00,,BKN001,0.01,VWS V14.00,2013-08-28 20:18:00,
2013-08-28 14:23:00,75.7,43.8,29.79,West,260,1.0,10.0,32,0.00,,BKN001,0.01,VWS V14.00,2013-08-28 20:23:00,
2013-08-28 14:28:00,76.0,44.8,29.79,South,188,1.0,10.0,33,0.00,,BKN001,0.01,VWS V14.00,2013-08-28 20:28:00,
2013-08-28 14:33:00,76.1,45.7,29.79,SSW,193,5.0,5.0,34,0.00,,BKN001,0.01,VWS V14.00,2013-08-28 20:33:00,
2013-08-28 14:38:00,77.0,45.7,29.78,ESE,122,0.0,5.0,33,0.00,,BKN001,0.01,VWS V14.00,2013-08-28 20:38:00,
2013-08-28 14:43:00,78.2,46.0,29.78,SE,124,0.0,5.0,32,0.00,,BKN001,0.01,VWS V14.00,2013-08-28 20:43:00,
2013-08-28 14:48:00,78.6,44.6,29.78,South,170,5.0,6.0,30,0.00,,BKN001,0.01,VWS V14.00,2013-08-28 20:48:00,
2013-08-28 14:53:00,77.7,42.9,29.78,ENE,69,2.0,7.0,29,0.00,,BKN001,0.01,VWS V14.00,2013-08-28 20:53:00,
2013-08-28 14:58:00,77.3,43.5,29.78,ENE,69,2.0,7.0,30,0.00,,BKN001,0.01,VWS V14.00,2013-08-28 20:58:00,
2013-08-28 15:03:00,76.6,48.4,29.79,SE,129,15.0,19.0,37,0.00,,BKN001,0.01,VWS V14.00,2013-08-28 21:03:00,
2013-08-28 15:08:00,73.7,47.9,29.79,SE,126,17.0,20.0,40,0.00,,BKN001,0.01,VWS V14.00,2013-08-28 21:08:00,
2013-08-28 15:13:00,72.3,51.0,29.79,SE,128,14.0,21.0,47,0.00,,BKN001,0.01,VWS V14.00,2013-08-28 21:13:00,
2013-08-28 15:18:00,70.0,51.1,29.79,SE,131,14.0,21.0,51,0.00,,BKN001,0.01,VWS V14.00,2013-08-28 21:18:00,
2013-08-28 15:23:00,66.8,49.1,29.78,SE,130,15.0,21.0,53,0.00,,BKN001,0.01,VWS V14.00,2013-08-28 21:23:00,
2013-08-28 15:28:00,64.6,50.9,29.79,SE,124,13.0,21.0,61,0.00,,BKN001,0.01,VWS V14.00,2013-08-28 21:28:00,
2013-08-28 15:33:00,64.4,47.4,29.79,ESE,116,15.0,18.0,54,0.00,,BKN001,0.01,VWS V14.00,2013-08-28 21:33:00,
2013-08-28 15:38:00,65.4,48.3,29.79,SE,124,14.0,19.0,54,0.00,,BKN001,0.01,VWS V14.00,2013-08-28 21:38:00,
2013-08-28 15:43:00,66.1,49.5,29.79,ESE,113,12.0,19.0,55,0.00,,BKN001,0.01,VWS V14.00,2013-08-28 21:43:00,
2013-08-28 15:48:00,69.2,49.2,29.78,SSE,163,8.0,19.0,49,0.00,,BKN001,0.01,VWS V14.00,2013-08-28 21:48:00,
2013-08-28 15:53:00,72.5,42.6,29.78,SSW,195,5.0,19.0,34,0.00,,BKN001,0.01,VWS V14.00,2013-08-28 21:53:00,
2013-08-28 15:58:00,72.7,45.7,29.78,SW,222,6.0,19.0,38,0.00,,BKN001,0.01,VWS V14.00,2013-08-28 21:58:00,
2013-08-28 16:03:00,73.3,46.2,29.78,SE,133,7.0,10.0,38,0.00,,BKN001,0.01,VWS V14.00,2013-08-28 22:03:00,
2013-08-28 16:08:00,74.2,46.3,29.78,ESE,114,7.0,11.0,37,0.00,,BKN001,0.01,VWS V14.00,2013-08-28 22:08:00,
2013-08-28 16:13:00,74.3,44.1,29.78,ESE,123,5.0,11.0,34,0.00,,BKN001,0.01,VWS V14.00,2013-08-28 22:13:00,
2013-08-28 16:18:00,75.0,45.5,29.78,ESE,110,5.0,11.0,35,0.00,,BKN001,0.01,VWS V14.00,2013-08-28 22:18:00,
2013-08-28 16:23:00,74.9,45.4,29.78,ESE,122,2.0,11.0,35,0.00,,BKN001,0.01,VWS V14.00,2013-08-28 22:23:00,
2013-08-28 16:28:00,74.0,48.2,29.78,SSE,147,1.0,11.0,40,0.00,,BKN001,0.01,VWS V14.00,2013-08-28 22:28:00,
2013-08-28 16:33:00,74.9,47.6,29.77,SSW,196,0.0,6.0,38,0.00,,BKN001,0.01,VWS V14.00,2013-08-28 22:33:00,
2013-08-28 16:38:00,75.2,47.2,29.77,SW,224,6.0,9.0,37,0.00,,BKN001,0.01,VWS V14.00,2013-08-28 22:38:00,
2013-08-28 16:43:00,75.3,48.0,29.77,WSW,240,4.0,9.0,38,0.00,,BKN001,0.01,VWS V14.00,2013-08-28 22:43:00,
2013-08-28 16:48:00,75.4,46.6,29.77,SSW,197,4.0,10.0,36,0.00,,BKN001,0.01,VWS V14.00,2013-08-28 22:48:00,
2013-08-28 16:53:00,75.3,48.7,29.77,SE,126,5.0,10.0,39,0.00,,BKN001,0.01,VWS V14.00,2013-08-28 22:53:00,
2013-08-28 16:58:00,75.3,47.3,29.77,SSE,165,9.0,13.0,37,0.00,,BKN001,0.01,VWS V14.00,2013-08-28 22:58:00,
2013-08-28 17:03:00,74.9,48.3,29.77,South,170,8.0,14.0,39,0.00,,BKN001,0.01,VWS V14.00,2013-08-28 23:03:00,
2013-08-28 17:08:00,73.8,44.5,29.77,SSW,204,9.0,16.0,35,0.00,,BKN001,0.01,VWS V14.00,2013-08-28 23:08:00,
2013-08-28 17:13:00,72.8,44.3,29.77,SSW,209,10.0,16.0,36,0.00,,BKN001,0.01,VWS V14.00,2013-08-28 23:13:00,
2013-08-28 17:18:00,72.2,45.9,29.76,SSW,207,8.0,16.0,39,0.00,,BKN001,0.01,VWS V14.00,2013-08-28 23:18:00,
2013-08-28 17:23:00,72.1,47.1,29.77,SSE,161,4.0,16.0,41,0.00,,BKN001,0.01,VWS V14.00,2013-08-28 23:23:00,
2013-08-28 17:28:00,71.9,46.3,29.77,SE,139,3.0,16.0,40,0.00,,BKN001,0.01,VWS V14.00,2013-08-28 23:28:00,
2013-08-28 17:33:00,71.5,45.3,29.77,SE,139,5.0,8.0,39,0.00,,BKN001,0.01,VWS V14.00,2013-08-28 23:33:00,
2013-08-28 17:38:00,71.3,46.4,29.77,SE,143,5.0,8.0,41,0.00,,BKN001,0.01,VWS V14.00,2013-08-28 23:38:00,
2013-08-28 17:43:00,71.2,46.3,29.78,SSE,152,5.0,12.0,41,0.00,,BKN001,0.01,VWS V14.00,2013-08-28 23:43:00,
2013-08-28 17:48:00,70.8,47.8,29.78,SSE,153,5.0,12.0,44,0.00,,BKN001,0.01,VWS V14.00,2013-08-28 23:48:00,
2013-08-28 17:53:00,71.0,47.4,29.78,SSE,166,5.0,12.0,43,0.00,,BKN001,0.01,VWS V14.00,2013-08-28 23:53:00,
2013-08-28 17:58:00,70.6,45.8,29.78,SW,219,11.0,16.0,41,0.00,,BKN001,0.01,VWS V14.00,2013-08-28 23:58:00,
2013-08-28 18:03:00,70.5,45.7,29.78,SW,217,7.0,12.0,41,0.00,,BKN001,0.01,VWS V14.00,2013-08-29 00:03:00,
2013-08-28 18:08:00,69.4,48.3,29.78,WSW,248,5.0,12.0,47,0.00,,BKN001,0.01,VWS V14.00,2013-08-29 00:08:00,
2013-08-28 18:13:00,68.2,48.9,29.78,SSW,195,3.0,12.0,50,0.00,,BKN001,0.01,VWS V14.00,2013-08-29 00:13:00,
2013-08-28 18:18:00,67.7,50.5,29.79,ESE,120,2.0,12.0,54,0.00,,BKN001,0.01,VWS V14.00,2013-08-29 00:18:00,
2013-08-28 18:23:00,67.1,48.9,29.78,ESE,115,4.0,12.0,52,0.00,,BKN001,0.01,VWS V14.00,2013-08-29 00:23:00,
2013-08-28 18:28:00,67.7,47.3,29.79,SSE,149,1.0,12.0,48,0.00,,BKN001,0.01,VWS V14.00,2013-08-29 00:28:00,
2013-08-28 18:33:00,68.0,47.6,29.79,SE,141,2.0,5.0,48,0.00,,BKN001,0.01,VWS V14.00,2013-08-29 00:33:00,
2013-08-28 18:38:00,68.2,49.4,29.80,SE,132,7.0,8.0,51,0.00,,BKN001,0.01,VWS V14.00,2013-08-29 00:38:00,
2013-08-28 18:42:00,67.7,47.3,29.80,ESE,115,11.0,22.0,48,0.00,,BKN001,0.01,VWS V14.00,2013-08-29 00:42:00,
2013-08-28 18:47:00,67.4,47.6,29.81,ESE,114,10.0,22.0,49,0.00,,BKN001,0.01,VWS V14.00,2013-08-29 00:47:00,
2013-08-28 18:52:00,67.3,47.5,29.80,SE,124,12.0,22.0,49,0.00,,BKN001,0.01,VWS V14.00,2013-08-29 00:52:00,
2013-08-28 18:57:00,67.3,47.0,29.81,ESE,120,14.0,22.0,48,0.00,,BKN001,0.01,VWS V14.00,2013-08-29 00:57:00,
2013-08-28 19:02:00,66.7,47.5,29.82,East,89,11.0,21.0,50,0.00,,BKN001,0.01,VWS V14.00,2013-08-29 01:02:00,
2013-08-28 19:07:00,65.9,48.3,29.82,SE,139,10.0,22.0,53,0.00,,BKN001,0.01,VWS V14.00,2013-08-29 01:07:00,
2013-08-28 19:12:00,65.5,47.4,29.82,ESE,105,9.0,22.0,52,0.00,,BKN001,0.01,VWS V14.00,2013-08-29 01:12:00,
2013-08-28 19:17:00,65.6,47.5,29.82,SSE,156,8.0,22.0,52,0.00,,BKN001,0.01,VWS V14.00,2013-08-29 01:17:00,
2013-08-28 19:22:00,65.3,47.8,29.82,SE,140,10.0,22.0,53,0.00,,BKN001,0.01,VWS V14.00,2013-08-29 01:22:00,
2013-08-28 19:27:00,65.5,46.4,29.82,SE,127,7.0,22.0,50,0.00,,BKN001,0.01,VWS V14.00,2013-08-29 01:27:00,
2013-08-28 19:32:00,66.0,45.8,29.82,South,191,5.0,11.0,48,0.00,,BKN001,0.01,VWS V14.00,2013-08-29 01:32:00,
2013-08-28 19:37:00,66.1,45.9,29.82,SSE,149,5.0,11.0,48,0.00,,BKN001,0.01,VWS V14.00,2013-08-29 01:37:00,
2013-08-28 19:42:00,65.9,45.7,29.82,SE,137,5.0,11.0,48,0.00,,BKN001,0.01,VWS V14.00,2013-08-29 01:42:00,
2013-08-28 19:47:00,65.3,46.7,29.83,SE,132,6.0,11.0,51,0.00,,BKN001,0.01,VWS V14.00,2013-08-29 01:47:00,
2013-08-28 19:52:00,64.9,46.4,29.83,ESE,122,0.0,11.0,51,0.00,,BKN001,0.01,VWS V14.00,2013-08-29 01:52:00,
2013-08-28 19:57:00,64.8,44.7,29.83,ENE,58,1.0,11.0,48,0.00,,BKN001,0.01,VWS V14.00,2013-08-29 01:57:00,
2013-08-28 20:02:00,64.5,46.5,29.83,SE,129,8.0,14.0,52,0.00,,BKN001,0.01,VWS V14.00,2013-08-29 02:02:00,
2013-08-28 20:07:00,64.2,46.7,29.83,SE,145,5.0,14.0,53,0.00,,BKN001,0.01,VWS V14.00,2013-08-29 02:07:00,
2013-08-28 20:12:00,64.0,46.5,29.84,SSE,149,5.0,14.0,53,0.00,,BKN001,0.01,VWS V14.00,2013-08-29 02:12:00,
2013-08-28 20:17:00,63.2,47.3,29.84,SE,146,6.0,14.0,56,0.00,,BKN001,0.01,VWS V14.00,2013-08-29 02:17:00,
2013-08-28 20:22:00,61.5,47.1,29.84,SE,142,8.0,14.0,59,0.00,,BKN001,0.01,VWS V14.00,2013-08-29 02:22:00,
2013-08-28 20:27:00,61.5,47.1,29.84,SSE,153,7.0,14.0,59,0.00,,BKN001,0.01,VWS V14.00,2013-08-29 02:27:00,
2013-08-28 20:32:00,61.6,46.7,29.84,SE,143,5.0,9.0,58,0.00,,BKN001,0.01,VWS V14.00,2013-08-29 02:32:00,
2013-08-28 20:37:00,61.5,47.1,29.85,South,179,4.0,9.0,59,0.00,,BKN001,0.01,VWS V14.00,2013-08-29 02:37:00,
2013-08-28 20:42:00,60.3,46.8,29.85,SSE,160,8.0,10.0,61,0.00,,BKN001,0.01,VWS V14.00,2013-08-29 02:42:00,
2013-08-28 20:47:00,59.6,47.0,29.85,SSE,166,7.0,10.0,63,0.00,,BKN001,0.01,VWS V14.00,2013-08-29 02:47:00,
2013-08-28 20:52:00,59.5,46.9,29.85,SSE,166,7.0,10.0,63,0.00,,BKN001,0.01,VWS V14.00,2013-08-29 02:52:00,
2013-08-28 20:57:00,59.8,46.8,29.86,SSE,147,6.0,10.0,62,0.00,,BKN001,0.01,VWS V14.00,2013-08-29 02:57:00,
2013-08-28 21:02:00,59.3,46.7,29.86,South,190,5.0,9.0,63,0.00,,BKN001,0.01,VWS V14.00,2013-08-29 03:02:00,
2013-08-28 21:07:00,58.3,47.0,29.86,South,173,5.0,9.0,66,0.00,,BKN001,0.01,VWS V14.00,2013-08-29 03:07:00,
2013-08-28 21:12:00,57.6,47.5,29.86,SSE,167,6.0,11.0,69,0.00,,BKN001,0.01,VWS V14.00,2013-08-29 03:12:00,
2013-08-28 21:17:00,57.3,47.2,29.87,SSE,159,7.0,11.0,69,0.00,,BKN001,0.01,VWS V14.00,2013-08-29 03:17:00,
2013-08-28 21:22:00,57.3,46.8,29.87,SSE,153,8.0,11.0,68,0.00,,BKN001,0.01,VWS V14.00,2013-08-29 03:22:00,
2013-08-28 21:27:00,57.3,46.8,29.87,SSE,151,6.0,11.0,68,0.00,,BKN001,0.01,VWS V14.00,2013-08-29 03:27:00,
2013-08-28 21:32:00,57.1,46.7,29.87,SE,141,7.0,9.0,68,0.00,,BKN001,0.01,VWS V14.00,2013-08-29 03:32:00,
2013-08-28 21:37:00,56.6,46.6,29.87,SSE,164,9.0,9.0,69,0.00,,BKN001,0.01,VWS V14.00,2013-08-29 03:37:00,
2013-08-28 21:42:00,55.7,46.5,29.88,SSE,155,7.0,10.0,71,0.00,,BKN001,0.01,VWS V14.00,2013-08-29 03:42:00,
2013-08-28 21:47:00,55.1,46.2,29.88,SSE,158,5.0,10.0,72,0.00,,BKN001,0.01,VWS V14.00,2013-08-29 03:47:00,
2013-08-28 21:52:00,54.6,46.1,29.88,South,180,7.0,11.0,73,0.00,,BKN001,0.01,VWS V14.00,2013-08-29 03:52:00,
2013-08-28 21:57:00,54.3,45.8,29.88,SSE,152,5.0,11.0,73,0.00,,BKN001,0.01,VWS V14.00,2013-08-29 03:57:00,
2013-08-28 22:01:00,54.1,46.0,29.88,SE,141,9.0,9.0,74,0.00,,BKN001,0.01,VWS V14.00,2013-08-29 04:01:00,
2013-08-28 22:02:00,54.4,46.3,29.88,SE,137,10.0,10.0,74,0.00,,BKN001,0.01,VWS V14.00,2013-08-29 04:02:00,
2013-08-28 22:03:00,54.4,46.3,29.88,SE,143,8.0,10.0,74,0.00,,BKN001,0.01,VWS V14.00,2013-08-29 04:03:00,
2013-08-28 22:08:00,54.6,46.1,29.88,South,174,6.0,10.0,73,0.00,,BKN001,0.01,VWS V14.00,2013-08-29 04:08:00,
2013-08-28 22:13:00,54.1,46.0,29.89,South,179,7.0,10.0,74,0.00,,BKN001,0.01,VWS V14.00,2013-08-29 04:13:00,
2013-08-28 22:18:00,54.6,46.5,29.89,SSW,212,6.0,11.0,74,0.00,,BKN001,0.01,VWS V14.00,2013-08-29 04:18:00,
2013-08-28 22:22:00,54.1,46.0,29.89,SW,226,7.0,11.0,74,0.00,,BKN001,0.01,VWS V14.00,2013-08-29 04:22:00,
2013-08-28 22:27:00,53.9,46.2,29.89,SW,226,10.0,11.0,75,0.00,,BKN001,0.01,VWS V14.00,2013-08-29 04:27:00,
2013-08-28 22:32:00,53.9,46.2,29.89,SW,217,10.0,13.0,75,0.00,,BKN001,0.01,VWS V14.00,2013-08-29 04:32:00,
2013-08-28 22:37:00,54.1,46.0,29.89,SW,229,10.0,13.0,74,0.00,,BKN001,0.01,VWS V14.00,2013-08-29 04:37:00,
2013-08-28 22:42:00,53.6,46.2,29.90,SSW,200,9.0,13.0,76,0.00,,BKN001,0.01,VWS V14.00,2013-08-29 04:42:00,
2013-08-28 22:47:00,53.3,46.6,29.90,SSW,210,6.0,13.0,78,0.00,,BKN001,0.01,VWS V14.00,2013-08-29 04:47:00,
2013-08-28 22:52:00,53.0,46.7,29.90,South,182,5.0,13.0,79,0.00,,BKN001,0.01,VWS V14.00,2013-08-29 04:52:00,
2013-08-28 22:57:00,52.6,46.3,29.90,SSE,160,7.0,13.0,79,0.00,,BKN001,0.01,VWS V14.00,2013-08-29 04:57:00,
2013-08-28 23:02:00,52.3,46.0,29.90,South,184,9.0,10.0,79,0.00,,BKN001,0.01,VWS V14.00,2013-08-29 05:02:00,
2013-08-28 23:07:00,52.3,45.7,29.90,SSE,162,5.0,11.0,78,0.00,,BKN001,0.01,VWS V14.00,2013-08-29 05:07:00,
2013-08-28 23:12:00,52.3,45.7,29.90,SSE,149,11.0,11.0,78,0.00,,BKN001,0.01,VWS V14.00,2013-08-29 05:12:00,
2013-08-28 23:17:00,52.4,45.4,29.90,SSE,154,10.0,11.0,77,0.00,,BKN001,0.01,VWS V14.00,2013-08-29 05:17:00,
2013-08-28 23:22:00,52.3,45.0,29.90,SE,145,8.0,11.0,76,0.00,,BKN001,0.01,VWS V14.00,2013-08-29 05:22:00,
2013-08-28 23:27:00,52.5,45.2,29.91,SE,146,7.0,13.0,76,0.00,,BKN001,0.01,VWS V14.00,2013-08-29 05:27:00,
2013-08-28 23:32:00,53.2,45.1,29.91,SE,144,10.0,14.0,74,0.00,,BKN001,0.01,VWS V14.00,2013-08-29 05:32:00,
2013-08-28 23:37:00,52.6,44.9,29.91,SSE,148,12.0,14.0,75,0.00,,BKN001,0.01,VWS V14.00,2013-08-29 05:37:00,
2013-08-28 23:42:00,52.2,44.9,29.91,South,170,8.0,14.0,76,0.00,,BKN001,0.01,VWS V14.00,2013-08-29 05:42:00,
2013-08-28 23:47:00,51.4,44.4,29.91,SSE,160,6.0,14.0,77,0.00,,BKN001,0.01,VWS V14.00,2013-08-29 05:47:00,
2013-08-28 23:52:00,51.0,44.7,29.91,SE,143,7.0,14.0,79,0.00,,BKN001,0.01,VWS V14.00,2013-08-29 05:52:00,
2013-08-28 23:57:00,50.6,44.3,29.91,South,180,10.0,14.0,79,0.00,,BKN001,0.01,VWS V14.00,2013-08-29 05:57:00,